Showing default

IHOPSAT-TD, 44859

Orbit data source: Space-Track

IHOPSAT-TD, 44859 is a payload satellite owned by Hera Systems (US) in LEO that was launched on Wed, 11 Dec 2019 UTC via a PSLV-QL launch vehicle from the Sirharikota (SRI). Payload-class satellites include a variety of spacecraft equipped with specific instruments for various scientific and technological missions. These include communications satellites like Starlink; space stations such as the ISS; scientific satellites like the Hubble; Earth observation satellites from companies like Planet Labs, Umbra, and HawkEye 360; GPS; miniature CubeSats for education and research; and military/defense satellites.

Loading next visibility...
Identifier
44859, 2019-089H
Orbit
LEO
Country
Flag of USUS
Related business
Manufacturer
Hera Systems
Mission
Operational Commercial Imaging
Bus & Motor
CUBESAT 12U, Unknown motor
Mass
22 kg wet, 22 kg dry
Launch date (UTC)
2019-12-11 (6 years ago)
Launch vehicle
PSLV-QL
Launch site
Sirharikota (SRI)
Object type
Payload
Rocket body
Debris
Shape & HBR
Box, Unknown HBR
Radar Cross Section
0.080 m², Small (<0.1 m²)

Expand to show TLE details & history
Last TLE update: 1 day ago

TLE from 1 day ago
0 IHOPSAT-TD
1 44859U 19089H   25242.01062469  .00004531  00000-0  28318-3 0  9998
2 44859  36.9690 350.6043 0005325 355.1382   4.9310 15.09356579313934
Epoch: 2025-08-30T00:15Z
TLE epoch observation values (Epoch: 2025-08-30T00:15:17.973Z)
Latitude
-0.00004°
Longitude
8.32831°
Altitude
533.617 km
Speed
7.6 km/s
True Right ascension
23h 22m 25s
True Declination
0° 00' 00"
Sunlit
Object was in full shadow at epoch
Visualization orbit readout
Latitude
Unknown
Longitude
Unknown
Altitude
Unknown
Speed
Unknown
Apparent Right ascension
Unknown
Apparent Declination
Unknown
Sunlit
N/A
Visualization observer readout
Local Sidereal Time
16:00:55
Azimuth
Unknown
Elevation
Unknown
Doppler factor
Unknown
Orbital elements
Apogee altitude
544.768 km
Perigee altitude
537.399 km
Semi-major axis
6,919.22 km
Eccentricity
0.00053
Inclination
36.969°
RAAN
350.6043°
Arg. of periapsis
355.1382°
True anomaly
4.93625°
Mean anomaly
4.931°
Eccentric anomaly
4.93362°
Mean motion
3.77101 °/min
Orbital period
95.47 mins
BSTAR
0.00028318
Loading maneuver chart data...
Computing Atmospheric mass density...
Loading historical data...
Loading historical data...
Loading historical data...
Loading historical data...
Loading historical data...
Loading historical data...
Loading historical data...

Documentation

Showing up to 5 results
|